Flag for U.S.A. Weather past 2 weeks in Albuquerque, New Mexico, U.S.A.

Now
73 °F

Passing clouds.


Feels Like: 77 °F
Forecast: 62 / 80 °F
Wind: 6 mph from North

Location: Albuquerque International Airport

Current Time: Sep 23, 2014 at 1:25:19 PM

Latest Report: Sep 23, 2014 at 12:52 PM


Visibility: 10 mi

Pressure: 30.04 "Hg

Humidity: 57%

Dew point: 57 °F

Location of AlbuquerqueLocation

Historic Weather in Albuquerque — Graph

°F

Albuquerque temperature yesterday

Maximum temperature yesterday: 80 °F (at 2:52 PM)
Minimum temperature yesterday: 66 °F (at 2:52 AM)
Average temperature yesterday: 70 °F

Past Weeks' High & Low Weather Summary

 TemperatureHumidityPressure
High90 °F (Sep 20, 3:52 PM)90% (Sep 17, 9:52 AM)30.28 "Hg (Sep 17, 9:52 AM)
Low51 °F (Sep 13, 12:52 AM)17% (Sep 20, 3:52 PM)29.68 "Hg (Sep 9, 5:52 PM)
Average70 °F56%29.96 "Hg
* Reported Sep 8 11:52 AM — Sep 23 11:52 AM, Albuquerque, Weather by CustomWeather, © 2014

Note: Actual official high and low records may vary slightly from our data, if they occured in-between our weather recording intervals... More about our weather records

Advertising

Albuquerque weather history for previous 24 hours

 ConditionsComfort  
Time TempWeatherWind HumidityBarometerVisibility
11:52 AM
Sep 23
71 °FScattered clouds.7 mph61%30.07 "Hg10 mi
10:52 AM69 °FScattered clouds.9 mph66%30.09 "Hg10 mi
9:52 AM66 °FScattered clouds.7 mph75%30.10 "Hg10 mi
8:52 AM63 °FPassing clouds.No wind84%30.10 "Hg10 mi
7:52 AM60 °FPassing clouds.No wind86%30.09 "Hg10 mi
6:52 AM60 °FPassing clouds.No wind83%30.07 "Hg10 mi
5:52 AM61 °FPassing clouds.No wind83%30.05 "Hg10 mi
4:52 AM62 °FPassing clouds.5 mph80%30.03 "Hg10 mi
3:52 AM61 °FPassing clouds.7 mph83%30.03 "Hg10 mi
2:52 AM61 °FPassing clouds.7 mph87%30.03 "Hg10 mi
1:52 AM63 °FPassing clouds.9 mph90%30.04 "Hg10 mi
12:52 AM66 °FPassing clouds.5 mph81%30.05 "Hg10 mi
11:52 PM
Sep 22
66 °FPartly cloudy.7 mph84%30.06 "Hg10 mi
10:52 PM66 °FPassing clouds.7 mph84%30.06 "Hg10 mi
9:52 PM66 °FMostly cloudy.6 mph87%30.06 "Hg10 mi
8:52 PM67 °FLight rain. Overcast.3 mph79%30.06 "Hg10 mi
7:52 PM69 °FPartly sunny.8 mph68%30.03 "Hg10 mi
6:52 PM70 °FThunderstorms. Partly sunny.15 mph66%30.01 "Hg10 mi
5:52 PM75 °FThunderstorms. Broken clouds.12 mph52%29.96 "Hg10 mi
4:52 PM79 °FBroken clouds.5 mph42%29.94 "Hg10 mi
3:52 PM79 °FBroken clouds.7 mph42%29.96 "Hg10 mi
2:52 PM80 °FScattered clouds.10 mph42%29.96 "Hg10 mi
1:52 PM78 °FScattered clouds.9 mph45%30.00 "Hg10 mi
Weather by CustomWeather, © 2014

See weather overviewHow to use our weather pages